Tracking 22458 objects as of 2-Mar-2021
HD Live streaming from Space Station
objects crossing your sky now

COSMOS 2491 DEB

Track COSMOS 2491 DEB now!
10-day predictions


NORAD ID: 45127
Int'l Code: 2013-076Z
Perigee: 1,359.1 km
Apogee: 1,546.5 km
Inclination: 82.5 °
Period: 114.8 minutes
Semi major axis: 7823 km
RCS: Unknown
Launch date: December 25, 2013
Source: Commonwealth of Independent States (former USSR) (CIS)
Launch site: PLESETSK MISSILE AND SPACE COMPLEX (PKMTR)

Note: This is SATELLITE DEBRIS
aabbcc
Your satellite tracking list
Your tracking list is empty




NASA's NSSDC Master Catalog

Two Line Element Set (TLE):
1 45127U 13076Z   21060.37476822  .00001305  00000-0  78259-2 0  9996
2 45127  82.4528 288.1258 0119710 260.3680  98.3865 12.54516341 50105
Source of the keplerian elements: AFSPC